www.pogodaiklimat.ru
ПОГОДА в Йорке
Время
и дата
18:53 14.08
19:53 14.08
20:53 14.08
21:53 14.08
22:53 14.08
23:53 14.08
00:53 15.08
01:53 15.08
02:53 15.08
03:53 15.08
04:53 15.08
05:53 15.08
06:53 15.08
07:53 15.08
08:53 15.08
09:53 15.08
10:53 15.08
11:53 15.08
12:53 15.08
13:53 15.08
14:53 15.08
15:53 15.08
16:53 15.08
17:53 15.08
18:53 15.08
19:53 15.08
20:53 15.08
21:53 15.08
22:53 15.08
23:53 15.08
00:53 16.08
01:53 16.08
02:53 16.08
03:53 16.08
04:53 16.08
05:53 16.08
06:53 16.08
07:53 16.08
08:53 16.08
09:53 16.08
10:53 16.08
11:53 16.08
12:53 16.08
13:53 16.08
14:53 16.08
15:53 16.08
16:53 16.08
17:53 16.08
Ветер
(напр.,м/с)
Видим. Явления Облачность Т
(С)
Тd
(С)
f
(%)
Тe
(С)
Тes
(С)
Комфортность P
(гПа)
Po
(гПа)
Тmin
(С)
Tmax
(С)
R
(мм)
R24
(мм)
S
(см)
ЮЗ 1 16 км 2/0 3300 м
[Ac]
+23.3 +13.3 53 +26 +27 жарко 1015.9 998.3 +23.3 +28.9
ЮЗ 1 16 км ясно +21.7 +13.9 61 +25 +25 комфорт 1016.2 998.7
штиль 0 16 км 10/0 2250 м
[Ac]
+20.6 +14.4 68 +23 +23 комфорт 1016.7 999.3
штиль 0 16 км 10/0 2550 м
[Ac]
+20.6 +15.6 73 +23 +23 комфорт 1016.5 999.0
штиль 0 16 км 10/0 3000 м
[Ac]
+20.6 +15.0 70 +23 +23 комфорт 1016.3 999.0
ЮЗ 1 16 км слабый дождь 10/0 2100 м
[Ac]
+20.0 +15.0 73 +23 +23 комфорт 1016.3 999.0
штиль 0 16 км слабый дождь 10/0 3000 м
[Ac]
+18.3 +16.1 87 +19 +19 1016.2 998.7 +18.3 +23.3
ЮВ 1 16 км 10/0 2700 м
[Ac]
+18.3 +16.7 90 +19 +19 1016.1 998.7
штиль 0 16 км 10/5 1950 м
[Ac]
+18.3 +16.1 87 +19 +19 1015.9 998.7
ЮВ 1 16 км 10/0 2100 м
[Ac]
+18.3 +16.7 90 +19 +19 1015.6 998.3
штиль 0 13 км слабый дождь 10/2 480 м
[Ac]
+18.3 +16.7 90 +19 +19 1015.7 998.3
штиль 0 16 км 10/10 1800 м +17.8 +16.1 90 +18 +18 1016.1 998.7
нст 1 8 км слабый дождь 10/8 1800 м
[Ac]
+17.8 +15.0 84 +18 +18 1016.3 999.0 +17.8 +18.3
штиль 0 16 км 10/10 1650 м +18.3 +15.0 81 +19 +19 1016.5 999.0
В 1 16 км 10/10 1800 м +18.9 +15.6 81 +21 +21 комфорт 1016.4 999.0
штиль 0 16 км 10/10 1800 м +20.0 +15.6 76 +22 +22 комфорт 1016.4 999.0
штиль 0 16 км 10/0 2100 м
[Ac]
+21.7 +16.1 70 +25 +31 комфорт 1016.2 998.7
нст 1 16 км 10/2 1800 м
[Ac]
+22.8 +15.6 64 +27 +34 душно 1015.7 998.3
штиль 0 16 км 10/0 2400 м
[Ac]
+23.3 +15.0 60 +27 +35 душно 1015.6 998.0 +17.8 +23.3
З 1 16 км 10/8 1230 м
[Ac]
+23.3 +15.6 62 +28 +29 душно 1015.3 998.0
СЗ 1 16 км 10/5 1200 м
[Ac]
+22.2 +16.7 71 +27 +30 душно 1015.0 997.7
З 1 16 км 10/0 2100 м
[Ac]
+22.2 +16.7 71 +27 +30 душно 1014.9 997.3
З 1 16 км 10/0 2700 м
[Ac]
+22.2 +17.2 73 +27 +29 душно 1014.8 997.3
СЗ 1 16 км 10/0 3000 м
[Ac]
+22.2 +17.2 73 +27 +28 душно 1014.8 997.3
штиль 0 16 км 8/0 3000 м
[Ac]
+21.1 +17.8 81 +25 +25 комфорт 1015.2 997.7 +21.1 +23.9
штиль 0 16 км ясно +19.4 +17.2 87 +21 +21 комфорт 1015.5 998.0
штиль 0 16 км 2/2 1950 м
[Ac]
+17.8 +16.1 90 +18 +18 1015.9 998.3
штиль 0 16 км 10/0 3300 м
[Ac]
+18.9 +16.7 87 +20 +20 1016.1 998.3
штиль 0 16 км 10/0 3300 м
[Ac]
+18.9 +16.7 87 +20 +20 1016.1 998.7
штиль 0 16 км 8/0 3600 м
[Ac]
+17.8 +16.1 90 +18 +18 1016.1 998.7
штиль 0 16 км ясно +17.2 +15.6 90 +17 +17 1015.6 998.0 +17.2 +21.1
штиль 0 13 км 8/0 3000 м
[Ac]
+16.7 +15.0 90 +17 +17 1015.7 998.3
штиль 0 16 км 8/0 3600 м
[Ac]
+16.1 +15.0 93 +16 +16 1015.8 998.3
штиль 0 13 км ясно +15.6 +14.4 93 +15 +15 1015.7 998.0
штиль 0 13 км ясно +15.6 +14.4 93 +15 +15 1016.1 998.7
штиль 0 16 км ясно +16.1 +15.0 93 +16 +16 1016.2 998.7
штиль 0 16 км ясно +17.8 +16.1 90 +18 +18 1016.6 999.0 +15.6 +17.8
СВ 1 16 км ясно +21.1 +16.1 73 +24 +26 комфорт 1016.7 999.3
В 2 16 км ясно +23.3 +15.0 60 +27 +31 душно 1016.8 999.3
В 1 16 км ясно +23.9 +11.7 46 +25 +33 комфорт 1016.9 999.3
В 1 16 км ясно +25.6 +12.2 43 +27 +38 жарко 1016.8 999.3
СВ 2 16 км ясно +26.1 +10.6 38 +27 +38 жарко 1016.8 999.3
нст 1 16 км 2/2 1950 м +27.2 +11.7 38 +28 +43 жарко 1016.3 998.7 +17.8 +27.2
СВ 2 16 км 5/0 2100 м
[Ac]
+28.3 +10.6 33 +29 +36 жарко 1015.7 998.3
В 3 16 км ясно +28.3 +11.7 36 +29 +35 жарко 1015.2 997.7
В 3 16 км ясно +27.8 +11.1 35 +29 +33 жарко 1015.1 997.7
ЮВ 2 16 км ясно +26.7 +10.6 36 +27 +31 жарко 1015.2 997.7
ЮВ 2 16 км ясно +26.1 +11.1 39 +27 +29 жарко 1015.5 998.0
Местоположение метеостанции York Airport: широта 39.9194 долгота -76.8769 высота над уровнем моря 146 м.
В архиве по умолчанию представлена погода в Йорке за последние 1-2 суток. Обновление информации о фактической погоде в базе происходит ежечасно! Архивные данные за месяц целиком и за предыдущие месяцы Вы можете получить, выбрав интересующий диапазон дат из раскрывающегося списка и нажав кнопку "Ввод!".
Внимание! Архив погоды МЕТАР в базе сайта по станциям, не включенным в климатический монитор, хранится не более 60 дней. Нет смысла пытаться выбрать более раннюю дату.
*Определитесь, кто Вы:
Внимание! Время в таблицах - местное (без учета летнего времени). Для получения всемирного времени необходимо вычесть поправку, которая равна -5 ч.
Смотрите также архив погоды в соседних городах и на ближайших метеорологических станциях:
Партнеры нашего сайта:      
Пояснения к столбцам:
  • Ветер - указаны скорость ветра в м/с - средняя за 10 мин, порывы в срок и между сроками (в фигурных скобках) и направление, откуда дует ветер: С - северный,
  • СВ - северо-восточный, В - восточный, ЮВ - юго-восточный, Ю - южный, ЮЗ - юго-западный, З - западный, СЗ - северо-западный.
  • Видимость - горизонтальная дальность видимости в метрах или километрах. При видимости от 1 до 10 км при отсутствии осадков обычно наблюдается дымка, при ухудшении видимости до 1 км и менее - туман. В сухую погоду видимость может ухудшаться дымом, пылью или мглою.
  • Явления - указаны атмосферные явления, наблюдавшиеся в срок или в последний час перед сроком; фигурными скобками обозначены явления, наблюдавшиеся между сроками (за 1-3 часа до срока); квадратными скобками обозначены град или гололедные отложения с указанием их диаметра в мм.
  • Облачность - указаны через наклонную черту общая и нижняя облачность в баллах и высота нижней границы облаков в метрах; квадратными скобками обозначены формы облаков: Ci - перистые, Cs - перисто-слоистые, Cc - перисто-кучевые, Ac - высококучевые, As - высокослоистые, Sc - слоисто-кучевые, Ns - слоисто-дождевые, Cu - кучевые, Cb - кучево-дождевые. Подробнее классификацию облаков см. в Атласе облаков (PDF).
  • T - Температура воздуха - температура, измеренная на высоте 2 м над землей.
  • Td - Температура точки росы - температура, при понижении до которой содержащийся в воздухе водяной пар достигнет насыщения.
  • f - Относительная влажность воздуха - влажноcть воздуха, измеренная на высоте 2 м над землей.
  • Te - Эффективная температура - температура, которую ощущает одетый по сезону человек в тени. Характеристика душности погоды. При расчете учитывается влияние влажности воздуха и скорости ветра на теплоощущения человека.
  • Tes - Эффективная температура на солнце - температура, которую ощущает человек, с поправкой на солнечный нагрев. Характеристика знойности погоды. Зависит от высоты солнца над горизонтом, облачности и скорости ветра. Ночью, в пасмурную погоду, а также при ветре 12 м/с и более поправка равна нулю.
  • P - Атмосферное давление - приведенное к уровню моря атмосферное давление.
  • Po - Атмосферное давление - измеренное на уровне метеостанции атмосферное давление.
  • Tmin - Минимальная температура - минимум температуры воздуха на высоте 2 м над землей.
  • Tmax - Максимальная температура - максимум температуры воздуха на высоте 2 м над землей.
  • R - Количество осадков - Количество выпавших осадков за период времени, мм. При наведении курсора мыши на число - период времени, за который выпало указанное количество осадков.
  • R24 - Количество осадков - Количество выпавших осадков за 24 часа, мм.
  • S - Снежный покров - Высота снежного покрова, см. При наведении курсора мыши на число - состояние снежного покрова и степень покрытия местности в баллах.